| time (UTC) | temp C | wind direction | speed KPH | gust KPH | rain 1hr cm | rain 24hr cm | rain mn cm | humidity % | barometer mb |
| 20260510184027 | 21 | 333 | 1.6 | 4.8 | 0.00 | 1.07 | 0.00 | 62 | 1011.3 |
| 20260510183527 | 21 | 154 | 1.6 | 14.5 | 0.00 | 1.07 | 0.00 | 63 | 1011.4 |
| 20260510183027 | 21 | 225 | 3.2 | 12.9 | 0.00 | 1.07 | 0.00 | 62 | 1011.4 |
| 20260510182547 | 21 | 268 | 3.2 | 12.9 | 0.00 | 1.07 | 0.00 | 63 | 1011.6 |
| 20260510182027 | 21 | 360 | 1.6 | 9.7 | 0.00 | 1.07 | 0.00 | 66 | 1011.5 |
| 20260510181527 | 20 | 240 | 1.6 | 11.3 | 0.00 | 1.07 | 0.00 | 65 | 1011.7 |
| 20260510181107 | 20 | 111 | 3.2 | 9.7 | 0.00 | 1.07 | 0.00 | 66 | 1011.7 |
| 20260510180527 | 20 | 296 | 1.6 | 6.4 | 0.00 | 1.07 | 0.00 | 66 | 1011.7 |
| 20260510180026 | 20 | 175 | 1.6 | 4.8 | 0.00 | 1.07 | 0.00 | 68 | 1011.8 |
| 20260510175608 | 19 | 172 | 0.0 | 4.8 | 0.00 | 1.07 | 0.00 | 69 | 1011.9 |
| 20260510175028 | 19 | 208 | 1.6 | 4.8 | 0.00 | 1.07 | 0.00 | 70 | 1011.9 |
| 20260510174528 | 19 | 345 | 0.0 | 1.6 | 0.00 | 1.07 | 0.00 | 69 | 1011.9 |
| 20260510174028 | 19 | 348 | 0.0 | 4.8 | 0.00 | 1.07 | 0.00 | 68 | 1012.0 |
| 20260510173528 | 19 | 93 | 0.0 | 4.8 | 0.00 | 1.07 | 0.00 | 67 | 1012.0 |
| 20260510173028 | 20 | 180 | 1.6 | 9.7 | 0.00 | 1.07 | 0.00 | 65 | 1012.1 |
| 20260510172527 | 20 | 210 | 1.6 | 6.4 | 0.00 | 1.07 | 0.00 | 66 | 1012.0 |
| 20260510172048 | 20 | 179 | 1.6 | 14.5 | 0.00 | 1.07 | 0.00 | 66 | 1012.1 |
| 20260510171527 | 20 | 220 | 3.2 | 16.1 | 0.00 | 1.07 | 0.00 | 66 | 1012.2 |
| 20260510171027 | 20 | 218 | 1.6 | 14.5 | 0.00 | 1.07 | 0.00 | 65 | 1012.1 |
| 20260510170527 | 20 | 185 | 1.6 | 9.7 | 0.00 | 1.07 | 0.00 | 65 | 1012.1 |
| 20260510170029 | 20 | 236 | 4.8 | 16.1 | 0.00 | 1.07 | 0.00 | 67 | 1012.1 |
| 20260510165529 | 20 | 187 | 1.6 | 11.3 | 0.00 | 1.07 | 0.00 | 71 | 1012.1 |
| 20260510165048 | 20 | 160 | 4.8 | 16.1 | 0.00 | 1.07 | 0.00 | 68 | 1012.1 |
| 20260510164528 | 20 | 272 | 3.2 | 17.7 | 0.00 | 1.07 | 0.00 | 67 | 1012.2 |
| 20260510164028 | 20 | 158 | 4.8 | 17.7 | 0.00 | 1.07 | 0.00 | 69 | 1012.2 |
| 20260510163528 | 20 | 125 | 4.8 | 14.5 | 0.00 | 1.07 | 0.00 | 70 | 1012.2 |
| 20260510163028 | 19 | 145 | 3.2 | 11.3 | 0.00 | 1.07 | 0.00 | 70 | 1012.4 |
| 20260510162608 | 19 | 187 | 3.2 | 11.3 | 0.00 | 1.07 | 0.00 | 70 | 1012.5 |
| 20260510162048 | 19 | 149 | 3.2 | 11.3 | 0.00 | 1.07 | 0.00 | 70 | 1012.6 |
| 20260510161528 | 19 | 233 | 1.6 | 11.3 | 0.00 | 1.07 | 0.00 | 72 | 1012.6 |
| 20260510161027 | 18 | 195 | 3.2 | 9.7 | 0.00 | 1.07 | 0.00 | 71 | 1012.7 |
| 20260510160527 | 18 | 120 | 1.6 | 6.4 | 0.00 | 1.07 | 0.00 | 73 | 1012.5 |
| 20260510160027 | 18 | 273 | 1.6 | 12.9 | 0.00 | 1.07 | 0.00 | 73 | 1012.6 |
| 20260510155529 | 18 | 281 | 3.2 | 12.9 | 0.00 | 1.07 | 0.00 | 74 | 1012.5 |
| 20260510155029 | 18 | 160 | 3.2 | 11.3 | 0.00 | 1.07 | 0.00 | 72 | 1012.5 |
| 20260510154529 | 18 | 181 | 3.2 | 9.7 | 0.00 | 1.07 | 0.00 | 74 | 1012.6 |
| 20260510154109 | 17 | 184 | 3.2 | 9.7 | 0.00 | 1.07 | 0.00 | 73 | 1012.7 |
| 20260510153528 | 17 | 221 | 3.2 | 9.7 | 0.00 | 1.07 | 0.00 | 74 | 1012.7 |
| 20260510153049 | 17 | 156 | 3.2 | 12.9 | 0.00 | 1.07 | 0.00 | 73 | 1012.7 |
| 20260510152528 | 17 | 205 | 3.2 | 12.9 | 0.00 | 1.07 | 0.00 | 74 | 1012.9 |
| 20260510152028 | 17 | 210 | 1.6 | 6.4 | 0.00 | 1.07 | 0.00 | 75 | 1012.9 |
| 20260510151528 | 16 | 199 | 1.6 | 6.4 | 0.00 | 1.07 | 0.00 | 81 | 1012.8 |
| 20260510151028 | 16 | 139 | 1.6 | 3.2 | 0.00 | 1.07 | 0.00 | 81 | 1012.7 |
| 20260510150527 | 16 | 131 | 0.0 | 1.6 | 0.00 | 1.07 | 0.00 | 82 | 1012.8 |
| 20260510150027 | 15 | 181 | 0.0 | 1.6 | 0.00 | 1.07 | 0.00 | 83 | 1012.8 |
| 20260510145527 | 15 | 182 | 0.0 | 6.4 | 0.00 | 1.09 | 0.00 | 82 | 1012.9 |
| 20260510145027 | 15 | 204 | 0.0 | 6.4 | 0.00 | 1.09 | 0.00 | 81 | 1012.8 |
| 20260510144527 | 15 | 175 | 0.0 | 4.8 | 0.00 | 1.09 | 0.00 | 81 | 1012.9 |
| 20260510144027 | 15 | 244 | 1.6 | 4.8 | 0.00 | 1.09 | 0.00 | 82 | 1013.0 |
| 20260510143547 | 15 | 264 | 1.6 | 6.4 | 0.00 | 1.09 | 0.00 | 81 | 1013.0 |
| 20260510143027 | 15 | 175 | 1.6 | 6.4 | 0.00 | 1.09 | 0.00 | 81 | 1013.0 |
| 20260510142526 | 15 | 181 | 1.6 | 4.8 | 0.00 | 1.09 | 0.00 | 83 | 1013.1 |
| 20260510142026 | 15 | 143 | 1.6 | 6.4 | 0.00 | 1.09 | 0.00 | 83 | 1013.1 |
| 20260510141528 | 15 | 187 | 1.6 | 6.4 | 0.00 | 1.09 | 0.00 | 82 | 1013.1 |
| 20260510141028 | 15 | 173 | 0.0 | 4.8 | 0.00 | 1.09 | 0.00 | 83 | 1013.0 |
| 20260510140528 | 15 | 150 | 0.0 | 3.2 | 0.00 | 1.09 | 0.00 | 82 | 1012.9 |
| 20260510140028 | 15 | 135 | 1.6 | 4.8 | 0.00 | 1.12 | 0.00 | 83 | 1013.0 |
| 20260510135527 | 15 | 206 | 1.6 | 4.8 | 0.00 | 1.12 | 0.00 | 82 | 1012.9 |
| 20260510135027 | 15 | 158 | 1.6 | 4.8 | 0.00 | 1.12 | 0.00 | 83 | 1012.8 |
| 20260510134527 | 15 | 128 | 1.6 | 6.4 | 0.00 | 1.12 | 0.00 | 81 | 1012.8 |
| 20260510134029 | 15 | 133 | 1.6 | 4.8 | 0.00 | 1.12 | 0.00 | 82 | 1012.8 |
| 20260510133549 | 15 | 251 | 1.6 | 6.4 | 0.00 | 1.12 | 0.00 | 83 | 1012.8 |
| 20260510133029 | 15 | 167 | 1.6 | 6.4 | 0.00 | 1.12 | 0.00 | 83 | 1012.8 |
| 20260510132529 | 15 | 177 | 3.2 | 11.3 | 0.00 | 1.12 | 0.00 | 83 | 1012.8 |
| 20260510132028 | 14 | 176 | 1.6 | 3.2 | 0.00 | 1.12 | 0.00 | 87 | 1012.7 |
| 20260510131528 | 13 | 205 | 0.0 | 3.2 | 0.00 | 1.14 | 0.00 | 89 | 1012.7 |
| 20260510131028 | 13 | 215 | 0.0 | 3.2 | 0.00 | 1.14 | 0.00 | 88 | 1012.8 |
| 20260510130528 | 13 | 261 | 1.6 | 4.8 | 0.00 | 1.14 | 0.00 | 89 | 1012.8 |
| 20260510130028 | 13 | 149 | 1.6 | 4.8 | 0.00 | 1.14 | 0.00 | 88 | 1012.7 |
| 20260510125528 | 13 | 158 | 1.6 | 4.8 | 0.00 | 1.14 | 0.00 | 89 | 1012.8 |
| 20260510125028 | 13 | 207 | 0.0 | 3.2 | 0.00 | 1.14 | 0.00 | 91 | 1012.8 |
| 20260510124528 | 12 | 181 | 1.6 | 12.9 | 0.00 | 1.14 | 0.00 | 92 | 1012.8 |
| 20260510124028 | 12 | 188 | 3.2 | 12.9 | 0.00 | 1.14 | 0.00 | 92 | 1013.0 |
| 20260510123527 | 12 | 202 | 1.6 | 12.9 | 0.00 | 1.14 | 0.00 | 92 | 1013.0 |
| 20260510123029 | 12 | 150 | 1.6 | 4.8 | 0.00 | 1.14 | 0.00 | 94 | 1013.1 |
| 20260510122529 | 12 | 69 | 1.6 | 6.4 | 0.00 | 1.14 | 0.00 | 94 | 1013.2 |
| 20260510122029 | 12 | 123 | 0.0 | 1.6 | 0.00 | 1.14 | 0.00 | 94 | 1013.1 |
| 20260510121529 | 12 | 209 | 0.0 | 3.2 | 0.00 | 1.14 | 0.00 | 94 | 1013.0 |
| 20260510121029 | 12 | 235 | 0.0 | 4.8 | 0.00 | 1.14 | 0.00 | 94 | 1013.0 |
| 20260510120528 | 12 | 218 | 1.6 | 4.8 | 0.00 | 1.14 | 0.00 | 95 | 1012.7 |
| 20260510120028 | 11 | 192 | 0.0 | 3.2 | 0.00 | 1.14 | 0.00 | 96 | 1012.8 |
| 20260510115528 | 11 | 171 | 1.6 | 3.2 | 0.00 | 1.14 | 0.00 | 95 | 1012.7 |
| 20260510115028 | 11 | 218 | 0.0 | 3.2 | 0.00 | 1.14 | 0.00 | 95 | 1012.9 |
| 20260510114528 | 11 | 227 | 0.0 | 3.2 | 0.00 | 1.17 | 0.00 | 96 | 1013.0 |
| 20260510114027 | 11 | 207 | 1.6 | 4.8 | 0.00 | 1.17 | 0.00 | 95 | 1012.7 |
| 20260510113527 | 11 | 143 | 0.0 | 4.8 | 0.00 | 1.17 | 0.00 | 95 | 1012.3 |
| 20260510113027 | 11 | 189 | 1.6 | 9.7 | 0.00 | 1.17 | 0.00 | 94 | 1012.4 |
| 20260510112527 | 12 | 215 | 1.6 | 6.4 | 0.00 | 1.17 | 0.00 | 94 | 1012.3 |
| 20260510112109 | 12 | 197 | 3.2 | 9.7 | 0.00 | 1.17 | 0.00 | 93 | 1012.4 |
| 20260510111529 | 12 | 151 | 3.2 | 16.1 | 0.00 | 1.17 | 0.00 | 94 | 1012.4 |
| 20260510111029 | 12 | 144 | 1.6 | 3.2 | 0.00 | 1.17 | 0.00 | 95 | 1012.4 |
| 20260510110529 | 11 | 121 | 1.6 | 4.8 | 0.00 | 1.17 | 0.00 | 96 | 1012.5 |
| 20260510110028 | 11 | 180 | 1.6 | 6.4 | 0.00 | 1.17 | 0.00 | 97 | 1012.5 |
| 20260510105528 | 11 | 162 | 1.6 | 6.4 | 0.00 | 1.17 | 0.00 | 98 | 1012.3 |
| 20260510105028 | 11 | 118 | 3.2 | 4.8 | 0.00 | 1.17 | 0.00 | 98 | 1012.2 |
| 20260510104528 | 11 | 160 | 1.6 | 3.2 | 0.00 | 1.17 | 0.00 | 98 | 1012.3 |
| 20260510104028 | 11 | 190 | 0.0 | 3.2 | 0.00 | 1.17 | 0.00 | 98 | 1012.4 |
| 20260510103528 | 10 | 162 | 1.6 | 4.8 | 0.00 | 1.17 | 0.00 | 97 | 1012.4 |
| 20260510103028 | 10 | 176 | 0.0 | 1.6 | 0.00 | 1.17 | 0.00 | 97 | 1012.6 |
| 20260510102528 | 10 | 176 | 0.0 | 6.4 | 0.00 | 1.17 | 0.00 | 97 | 1012.7 |
| 20260510102048 | 10 | 171 | 0.0 | 6.4 | 0.00 | 1.17 | 0.00 | 98 | 1012.6 |
| 20260510101527 | 10 | 179 | 0.0 | 1.6 | 0.00 | 1.17 | 0.00 | 97 | 1012.5 |
| 20260510101049 | 10 | 181 | 0.0 | 1.6 | 0.00 | 1.17 | 0.00 | 97 | 1012.5 |
| 20260510100529 | 10 | 184 | 0.0 | 3.2 | 0.00 | 1.17 | 0.00 | 97 | 1012.6 |
| 20260510100029 | 10 | 209 | 0.0 | 3.2 | 0.00 | 1.17 | 0.00 | 97 | 1012.7 |
| 20260510095528 | 10 | 172 | 1.6 | 6.4 | 0.00 | 1.17 | 0.00 | 97 | 1012.6 |
| 20260510095049 | 10 | 208 | 0.0 | 3.2 | 0.00 | 1.17 | 0.00 | 97 | 1012.6 |
| 20260510094528 | 10 | 218 | 0.0 | 3.2 | 0.00 | 1.17 | 0.00 | 97 | 1012.5 |
| 20260510094028 | 10 | 187 | 1.6 | 4.8 | 0.00 | 1.17 | 0.00 | 97 | 1012.4 |
| 20260510093528 | 10 | 173 | 0.0 | 6.4 | 0.00 | 1.17 | 0.00 | 98 | 1012.4 |
| 20260510093028 | 10 | 146 | 0.0 | 6.4 | 0.00 | 1.17 | 0.00 | 97 | 1012.2 |
| 20260510092528 | 10 | 0.0 | 0.0 | 0.00 | 1.17 | 0.00 | 97 | 1012.2 | |
| 20260510092028 | 10 | 133 | 0.0 | 3.2 | 0.00 | 1.17 | 0.00 | 97 | 1012.1 |
| 20260510091547 | 10 | 182 | 0.0 | 3.2 | 0.00 | 1.17 | 0.00 | 98 | 1012.1 |
| 20260510091048 | 10 | 255 | 0.0 | 1.6 | 0.00 | 1.17 | 0.00 | 98 | 1012.0 |
| 20260510090609 | 10 | 0.0 | 1.6 | 0.00 | 1.17 | 0.00 | 98 | 1012.0 | |
| 20260510090027 | 10 | 211 | 0.0 | 1.6 | 0.00 | 1.17 | 0.00 | 98 | 1011.9 |
| 20260510085549 | 10 | 0.0 | 1.6 | 0.00 | 1.17 | 0.00 | 98 | 1011.7 | |
| 20260510085029 | 10 | 212 | 0.0 | 1.6 | 0.00 | 1.17 | 0.00 | 98 | 1011.7 |
| 20260510084529 | 11 | 212 | 0.0 | 1.6 | 0.00 | 1.17 | 0.00 | 98 | 1011.8 |
| 20260510084049 | 10 | 213 | 0.0 | 1.6 | 0.00 | 1.17 | 0.00 | 98 | 1011.6 |
| 20260510083528 | 11 | 169 | 0.0 | 9.7 | 0.00 | 1.17 | 0.00 | 98 | 1011.7 |
| 20260510083028 | 11 | 148 | 1.6 | 3.2 | 0.00 | 1.17 | 0.00 | 99 | 1011.7 |
| 20260510082528 | 11 | 126 | 0.0 | 3.2 | 0.00 | 1.17 | 0.00 | 99 | 1011.6 |
| 20260510082028 | 11 | 156 | 0.0 | 1.6 | 0.00 | 1.17 | 0.00 | 99 | 1011.9 |
| 20260510081528 | 11 | 151 | 0.0 | 3.2 | 0.00 | 1.17 | 0.00 | 99 | 1012.0 |
| 20260510081028 | 10 | 184 | 0.0 | 6.4 | 0.00 | 1.17 | 0.00 | 99 | 1012.0 |
| 20260510080527 | 10 | 179 | 0.0 | 4.8 | 0.00 | 1.17 | 0.00 | 99 | 1012.0 |
| 20260510080027 | 10 | 180 | 1.6 | 4.8 | 0.00 | 1.17 | 0.00 | 99 | 1011.9 |
| 20260510075527 | 10 | 145 | 0.0 | 3.2 | 0.00 | 1.17 | 0.00 | 99 | 1011.8 |
| 20260510075027 | 10 | 194 | 0.0 | 1.6 | 0.00 | 1.17 | 0.00 | 99 | 1011.9 |
| 20260510074527 | 10 | 0.0 | 0.0 | 0.00 | 1.17 | 0.00 | 99 | 1011.9 | |
| 20260510074047 | 10 | 195 | 0.0 | 1.6 | 0.00 | 1.17 | 0.00 | 99 | 1011.8 |
| 20260510073529 | 10 | 195 | 0.0 | 1.6 | 0.00 | 1.17 | 0.00 | 99 | 1011.8 |
| 20260510073028 | 10 | 195 | 0.0 | 3.2 | 0.00 | 1.17 | 0.00 | 99 | 1011.6 |
| 20260510072527 | 10 | 195 | 1.6 | 4.8 | 0.00 | 1.17 | 0.00 | 99 | 1011.5 |
| 20260510072027 | 10 | 207 | 0.0 | 1.6 | 0.00 | 1.17 | 0.00 | 99 | 1011.5 |
| 20260510071547 | 10 | 207 | 0.0 | 1.6 | 0.00 | 1.17 | 0.00 | 99 | 1011.3 |
| 20260510071028 | 10 | 197 | 0.0 | 3.2 | 0.00 | 1.17 | 0.00 | 99 | 1011.4 |
| 20260510070528 | 10 | 221 | 0.0 | 4.8 | 0.00 | 1.17 | 0.00 | 99 | 1011.2 |
| 20260510070029 | 10 | 208 | 0.0 | 4.8 | 0.00 | 1.17 | 0.00 | 99 | 1011.2 |
| 20260510065528 | 10 | 191 | 1.6 | 3.2 | 0.00 | 1.17 | 0.00 | 99 | 1011.2 |
| 20260510065028 | 10 | 188 | 0.0 | 1.6 | 0.00 | 1.17 | 0.00 | 99 | 1011.3 |
| 20260510064528 | 10 | 191 | 0.0 | 1.6 | 0.00 | 1.17 | 0.00 | 99 | 1011.3 |
| 20260510064028 | 10 | 190 | 0.0 | 1.6 | 0.00 | 1.17 | 0.00 | 99 | 1011.5 |
| 20260510063528 | 10 | 194 | 0.0 | 6.4 | 0.00 | 1.17 | 0.00 | 99 | 1011.7 |
| 20260510063047 | 10 | 189 | 0.0 | 4.8 | 0.00 | 1.17 | 0.00 | 99 | 1011.7 |
| 20260510062527 | 10 | 179 | 0.0 | 4.8 | 0.00 | 1.17 | 0.00 | 99 | 1011.6 |
| 20260510062027 | 10 | 0.0 | 0.0 | 0.00 | 1.17 | 0.00 | 99 | 1011.7 | |
| 20260510061527 | 10 | 0.0 | 0.0 | 0.00 | 1.17 | 0.00 | 99 | 1011.7 | |
| 20260510061029 | 10 | 0.0 | 0.0 | 0.00 | 1.17 | 0.00 | 99 | 1011.6 | |
| 20260510060549 | 10 | 0.0 | 0.0 | 0.00 | 1.17 | 0.00 | 99 | 1011.5 | |
| 20260510060029 | 10 | 0.0 | 0.0 | 0.00 | 1.17 | 0.00 | 99 | 1011.3 | |
| 20260510055527 | 10 | 0.0 | 0.0 | 0.00 | 1.17 | 0.00 | 99 | 1011.3 | |
| 20260510055027 | 10 | 0.0 | 0.0 | 0.00 | 1.17 | 0.00 | 99 | 1011.4 | |
| 20260510054526 | 10 | 0.0 | 0.0 | 0.00 | 1.17 | 0.00 | 99 | 1011.5 | |
| 20260510054048 | 10 | 0.0 | 0.0 | 0.00 | 1.17 | 0.00 | 99 | 1011.7 | |
| 20260510053528 | 10 | 0.0 | 0.0 | 0.00 | 1.17 | 0.00 | 99 | 1011.7 | |
| 20260510053028 | 10 | 0.0 | 0.0 | 0.00 | 1.17 | 0.00 | 99 | 1011.8 | |
| 20260510052527 | 10 | 0.0 | 0.0 | 0.00 | 1.17 | 0.00 | 99 | 1011.8 | |
| 20260510052108 | 10 | 0.0 | 0.0 | 0.00 | 1.17 | 0.00 | 99 | 1011.7 | |
| 20260510051548 | 10 | 0.0 | 0.0 | 0.00 | 1.17 | 0.00 | 99 | 1011.7 | |
| 20260510051027 | 10 | 0.0 | 0.0 | 0.00 | 1.17 | 0.00 | 99 | 1011.8 | |
| 20260510050527 | 10 | 0.0 | 0.0 | 0.00 | 1.17 | 0.00 | 99 | 1011.8 | |
| 20260510050027 | 10 | 0.0 | 0.0 | 0.00 | 1.17 | 0.00 | 99 | 1011.8 | |
| 20260510045527 | 10 | 0.0 | 0.0 | 0.00 | 1.17 | 0.00 | 99 | 1011.9 | |
| 20260510045027 | 10 | 0.0 | 0.0 | 0.03 | 1.17 | 0.00 | 99 | 1011.9 | |
| 20260510044527 | 10 | 0.0 | 0.0 | 0.03 | 1.17 | 0.00 | 99 | 1011.9 | |
| 20260510044027 | 10 | 0.0 | 0.0 | 0.03 | 1.17 | 0.00 | 98 | 1011.9 | |
| 20260510043547 | 10 | 0.0 | 0.0 | 0.03 | 1.17 | 0.00 | 98 | 1012.0 | |
| 20260510043026 | 10 | 147 | 0.0 | 6.4 | 0.03 | 1.17 | 0.00 | 98 | 1012.0 |
| 20260510042548 | 10 | 172 | 1.6 | 6.4 | 0.03 | 1.17 | 0.00 | 98 | 1011.9 |
| 20260510042028 | 10 | 163 | 0.0 | 4.8 | 0.03 | 1.17 | 0.00 | 98 | 1011.9 |
| 20260510041528 | 10 | 159 | 1.6 | 6.4 | 0.03 | 1.17 | 0.00 | 98 | 1011.7 |
| 20260510041108 | 10 | 118 | 1.6 | 14.5 | 0.03 | 1.17 | 0.00 | 98 | 1011.5 |
| 20260510040548 | 10 | 110 | 0.0 | 1.6 | 0.00 | 1.14 | 0.00 | 98 | 1011.7 |
| 20260510040028 | 10 | 128 | 1.6 | 6.4 | 0.00 | 1.14 | 0.00 | 98 | 1011.8 |
| 20260510035527 | 10 | 154 | 1.6 | 4.8 | 0.00 | 1.14 | 1.14 | 98 | 1011.9 |
| 20260510035027 | 10 | 205 | 0.0 | 1.6 | 0.00 | 1.14 | 1.14 | 98 | 1011.9 |
| 20260510034527 | 10 | 0.0 | 0.0 | 0.00 | 1.14 | 1.14 | 98 | 1012.0 | |
| 20260510034027 | 10 | 0.0 | 0.0 | 0.00 | 1.14 | 1.14 | 98 | 1012.0 | |
| 20260510033527 | 10 | 222 | 0.0 | 1.6 | 0.00 | 1.14 | 1.14 | 97 | 1012.2 |
| 20260510033026 | 11 | 0.0 | 0.0 | 0.00 | 1.14 | 1.14 | 97 | 1012.2 | |
| 20260510032526 | 11 | 222 | 0.0 | 1.6 | 0.00 | 1.14 | 1.14 | 97 | 1012.3 |
| 20260510032026 | 11 | 0.0 | 0.0 | 0.00 | 1.14 | 1.14 | 96 | 1012.2 | |
| 20260510031548 | 11 | 196 | 0.0 | 3.2 | 0.00 | 1.14 | 1.14 | 96 | 1012.2 |
| 20260510031028 | 11 | 134 | 0.0 | 3.2 | 0.00 | 1.14 | 1.14 | 95 | 1012.3 |
| 20260510030528 | 11 | 149 | 0.0 | 4.8 | 0.00 | 1.14 | 1.14 | 95 | 1012.3 |
| 20260510030028 | 11 | 172 | 1.6 | 6.4 | 0.00 | 1.14 | 1.14 | 96 | 1012.3 |
| 20260510025528 | 11 | 124 | 1.6 | 4.8 | 0.00 | 1.14 | 1.14 | 96 | 1012.4 |
| 20260510025027 | 11 | 165 | 0.0 | 6.4 | 0.00 | 1.14 | 1.14 | 96 | 1012.4 |
| 20260510024527 | 11 | 160 | 3.2 | 11.3 | 0.00 | 1.14 | 1.14 | 96 | 1012.3 |
| 20260510024027 | 11 | 171 | 1.6 | 4.8 | 0.00 | 1.14 | 1.14 | 96 | 1012.5 |
| 20260510023527 | 11 | 219 | 1.6 | 6.4 | 0.00 | 1.14 | 1.14 | 96 | 1012.6 |
| 20260510023029 | 11 | 174 | 0.0 | 4.8 | 0.00 | 1.14 | 1.14 | 96 | 1012.5 |
| 20260510022528 | 11 | 122 | 3.2 | 12.9 | 0.00 | 1.14 | 1.14 | 96 | 1012.6 |
| 20260510022028 | 11 | 159 | 1.6 | 12.9 | 0.00 | 1.14 | 1.14 | 96 | 1012.6 |
| 20260510021528 | 11 | 156 | 3.2 | 9.7 | 0.00 | 1.14 | 1.14 | 96 | 1012.6 |
| 20260510021028 | 11 | 188 | 1.6 | 6.4 | 0.00 | 1.14 | 1.14 | 97 | 1012.6 |
| 20260510020528 | 11 | 177 | 4.8 | 16.1 | 0.00 | 1.12 | 1.12 | 97 | 1012.7 |
| 20260510020028 | 11 | 190 | 3.2 | 16.1 | 0.00 | 1.12 | 1.12 | 99 | 1012.7 |
| 20260510015527 | 11 | 152 | 3.2 | 11.3 | 0.00 | 1.12 | 1.12 | 99 | 1012.7 |
| 20260510015048 | 11 | 178 | 3.2 | 14.5 | 0.00 | 1.12 | 1.12 | 99 | 1012.8 |
| 20260510014527 | 11 | 194 | 1.6 | 9.7 | 0.00 | 1.12 | 1.12 | 99 | 1012.8 |
| 20260510014027 | 11 | 133 | 1.6 | 9.7 | 0.00 | 1.12 | 1.12 | 99 | 1012.7 |
| 20260510013527 | 11 | 196 | 1.6 | 4.8 | 0.00 | 1.12 | 1.12 | 99 | 1012.8 |
| 20260510013026 | 10 | 196 | 1.6 | 3.2 | 0.03 | 1.12 | 1.12 | 99 | 1012.9 |
| 20260510012528 | 10 | 157 | 0.0 | 1.6 | 0.03 | 1.12 | 1.12 | 99 | 1012.9 |
| 20260510012028 | 10 | 0.0 | 1.6 | 0.03 | 1.12 | 1.12 | 99 | 1012.7 | |
| 20260510011548 | 10 | 157 | 0.0 | 3.2 | 0.05 | 1.12 | 1.12 | 99 | 1012.7 |
| 20260510011048 | 9 | 0.0 | 0.0 | 0.05 | 1.12 | 1.12 | 99 | 1012.7 | |
| 20260510010527 | 9 | 0.0 | 0.0 | 0.05 | 1.12 | 1.12 | 99 | 1012.7 | |
| 20260510010028 | 9 | 0.0 | 0.0 | 0.08 | 1.12 | 1.12 | 99 | 1012.7 | |
| 20260510005527 | 9 | 0.0 | 0.0 | 0.10 | 1.12 | 1.12 | 99 | 1012.7 | |
| 20260510005029 | 9 | 0.0 | 0.0 | 0.15 | 1.12 | 1.12 | 99 | 1012.7 | |
| 20260510004529 | 9 | 0.0 | 0.0 | 0.18 | 1.12 | 1.12 | 99 | 1012.7 | |
| 20260510004049 | 9 | 0.0 | 0.0 | 0.20 | 1.12 | 1.12 | 99 | 1012.7 | |
| 20260510003549 | 9 | 146 | 0.0 | 1.6 | 0.20 | 1.12 | 1.12 | 99 | 1012.7 |
| 20260510003029 | 9 | 0.0 | 0.0 | 0.23 | 1.12 | 1.12 | 99 | 1012.7 | |
| 20260510002529 | 9 | 0.0 | 0.0 | 0.25 | 1.12 | 1.12 | 99 | 1012.7 | |
| 20260510002028 | 9 | 145 | 0.0 | 1.6 | 0.28 | 1.09 | 1.09 | 99 | 1012.7 |
| 20260510001528 | 9 | 0.0 | 0.0 | 0.30 | 1.09 | 1.09 | 99 | 1012.8 | |
| 20260510001028 | 9 | 0.0 | 0.0 | 0.33 | 1.07 | 1.07 | 99 | 1012.9 | |
| 20260510000528 | 9 | 0.0 | 0.0 | 0.33 | 1.07 | 1.07 | 99 | 1013.0 | |
| 20260510000028 | 9 | 0.0 | 0.0 | 0.36 | 1.07 | 1.07 | 99 | 1013.0 | |
| 20260509235529 | 9 | 137 | 0.0 | 1.6 | 0.38 | 1.02 | 1.02 | 99 | 1013.0 |
| 20260509235028 | 9 | 0.0 | 0.0 | 0.36 | 0.97 | 0.97 | 99 | 1013.1 | |
| 20260509234527 | 9 | 122 | 0.0 | 1.6 | 0.36 | 0.94 | 0.94 | 99 | 1013.1 |
| 20260509234050 | 9 | 0.0 | 0.0 | 0.33 | 0.91 | 0.91 | 99 | 1013.0 | |
| 20260509233529 | 9 | 106 | 0.0 | 1.6 | 0.33 | 0.91 | 0.91 | 99 | 1012.9 |
| 20260509233029 | 9 | 0.0 | 0.0 | 0.33 | 0.89 | 0.89 | 99 | 1012.8 | |
| 20260509232529 | 9 | 106 | 0.0 | 1.6 | 0.30 | 0.86 | 0.86 | 99 | 1012.9 |
| 20260509232029 | 9 | 106 | 0.0 | 1.6 | 0.28 | 0.81 | 0.81 | 99 | 1012.9 |
| 20260509231528 | 9 | 105 | 0.0 | 1.6 | 0.25 | 0.79 | 0.79 | 99 | 1012.8 |
| 20260509231028 | 9 | 105 | 0.0 | 3.2 | 0.23 | 0.76 | 0.76 | 99 | 1012.7 |
| 20260509230528 | 9 | 109 | 1.6 | 3.2 | 0.20 | 0.74 | 0.74 | 99 | 1012.6 |
| 20260509230028 | 9 | 65 | 1.6 | 3.2 | 0.20 | 0.71 | 0.71 | 99 | 1012.9 |
| 20260509225528 | 9 | 21 | 0.0 | 1.6 | 0.15 | 0.66 | 0.66 | 99 | 1012.8 |
| 20260509225028 | 9 | 0.0 | 0.0 | 0.15 | 0.61 | 0.61 | 99 | 1012.6 | |
| 20260509224528 | 10 | 0.0 | 0.0 | 0.13 | 0.58 | 0.58 | 99 | 1012.6 | |
| 20260509224027 | 10 | 0.0 | 0.0 | 0.13 | 0.58 | 0.58 | 99 | 1012.5 | |
| 20260509223528 | 10 | 0.0 | 0.0 | 0.13 | 0.56 | 0.56 | 99 | 1012.4 | |
| 20260509223029 | 10 | 0.0 | 0.0 | 0.13 | 0.56 | 0.56 | 99 | 1012.4 | |
| 20260509222529 | 10 | 0.0 | 0.0 | 0.13 | 0.56 | 0.56 | 98 | 1012.4 | |
| 20260509222029 | 10 | 0.0 | 0.0 | 0.15 | 0.56 | 0.56 | 98 | 1012.5 | |
| 20260509221529 | 10 | 0.0 | 0.0 | 0.15 | 0.53 | 0.53 | 98 | 1012.5 | |
| 20260509221029 | 10 | 0.0 | 0.0 | 0.18 | 0.53 | 0.53 | 98 | 1012.6 | |
| 20260509220528 | 10 | 0.0 | 0.0 | 0.18 | 0.53 | 0.53 | 98 | 1012.6 | |
| 20260509220028 | 10 | 0.0 | 0.0 | 0.20 | 0.51 | 0.51 | 98 | 1012.5 | |
| 20260509215528 | 10 | 5 | 0.0 | 1.6 | 0.23 | 0.51 | 0.51 | 98 | 1012.5 |
| 20260509215028 | 10 | 0.0 | 0.0 | 0.20 | 0.46 | 0.46 | 98 | 1012.5 | |
| 20260509214527 | 10 | 0.0 | 0.0 | 0.20 | 0.46 | 0.46 | 98 | 1012.4 | |
| 20260509214048 | 10 | 300 | 0.0 | 1.6 | 0.20 | 0.43 | 0.43 | 98 | 1012.3 |
| 20260509213548 | 10 | 0.0 | 0.0 | 0.20 | 0.43 | 0.43 | 98 | 1012.4 | |
| 20260509213027 | 10 | 297 | 0.0 | 1.6 | 0.20 | 0.43 | 0.43 | 98 | 1012.4 |
| 20260509212528 | 10 | 42 | 1.6 | 4.8 | 0.20 | 0.43 | 0.43 | 98 | 1012.4 |
| 20260509212028 | 10 | 115 | 0.0 | 3.2 | 0.20 | 0.41 | 0.41 | 97 | 1012.4 |
| 20260509211527 | 10 | 305 | 0.0 | 1.6 | 0.20 | 0.38 | 0.38 | 97 | 1012.4 |
| 20260509211027 | 10 | 304 | 0.0 | 4.8 | 0.23 | 0.36 | 0.36 | 97 | 1012.3 |
| 20260509210527 | 10 | 332 | 0.0 | 4.8 | 0.23 | 0.36 | 0.36 | 96 | 1012.2 |
| 20260509210027 | 10 | 79 | 1.6 | 6.4 | 0.18 | 0.30 | 0.30 | 96 | 1012.3 |
| 20260509205527 | 10 | 11 | 0.0 | 1.6 | 0.18 | 0.28 | 0.28 | 96 | 1012.1 |
| 20260509205027 | 10 | 54 | 0.0 | 1.6 | 0.18 | 0.28 | 0.28 | 96 | 1012.3 |
| 20260509204547 | 10 | 0.0 | 0.0 | 0.15 | 0.25 | 0.25 | 95 | 1012.3 | |
| 20260509204027 | 10 | 0.0 | 0.0 | 0.15 | 0.25 | 0.25 | 95 | 1012.2 | |
| 20260509203527 | 10 | 0.0 | 0.0 | 0.13 | 0.23 | 0.23 | 95 | 1012.3 | |
| 20260509203026 | 10 | 0.0 | 0.0 | 0.13 | 0.23 | 0.23 | 94 | 1012.3 | |
| 20260509202526 | 11 | 0.0 | 0.0 | 0.10 | 0.20 | 0.20 | 93 | 1012.4 | |
| 20260509202029 | 11 | 79 | 0.0 | 1.6 | 0.10 | 0.18 | 0.18 | 92 | 1012.4 |
| 20260509201528 | 11 | 79 | 0.0 | 1.6 | 0.08 | 0.18 | 0.18 | 92 | 1012.4 |
| 20260509201028 | 11 | 84 | 0.0 | 3.2 | 0.05 | 0.13 | 0.13 | 90 | 1012.3 |
| 20260509200608 | 11 | 93 | 0.0 | 3.2 | 0.03 | 0.13 | 0.13 | 89 | 1012.4 |
| 20260509200027 | 11 | 92 | 0.0 | 3.2 | 0.03 | 0.13 | 0.13 | 87 | 1012.4 |
| 20260509195549 | 11 | 104 | 0.0 | 4.8 | 0.00 | 0.10 | 0.10 | 85 | 1012.5 |
| 20260509195048 | 12 | 77 | 1.6 | 3.2 | 0.00 | 0.10 | 0.10 | 85 | 1012.5 |
| 20260509194548 | 12 | 79 | 1.6 | 4.8 | 0.00 | 0.10 | 0.10 | 84 | 1012.5 |
| 20260509194028 | 12 | 52 | 0.0 | 3.2 | 0.00 | 0.10 | 0.10 | 84 | 1012.5 |
| 20260509193529 | 12 | 73 | 0.0 | 4.8 | 0.00 | 0.10 | 0.10 | 84 | 1012.6 |
| 20260509193048 | 12 | 70 | 0.0 | 3.2 | 0.00 | 0.10 | 0.10 | 84 | 1012.4 |
| 20260509192527 | 12 | 75 | 0.0 | 4.8 | 0.00 | 0.10 | 0.10 | 84 | 1012.5 |
| 20260509192028 | 12 | 79 | 1.6 | 11.3 | 0.00 | 0.10 | 0.10 | 83 | 1012.3 |
| 20260509191527 | 12 | 84 | 1.6 | 4.8 | 0.00 | 0.10 | 0.10 | 84 | 1012.4 |
| 20260509191028 | 12 | 121 | 0.0 | 4.8 | 0.00 | 0.10 | 0.10 | 85 | 1012.2 |
| 20260509190527 | 12 | 86 | 1.6 | 9.7 | 0.00 | 0.10 | 0.10 | 84 | 1012.3 |
| 20260509190029 | 12 | 76 | 1.6 | 4.8 | 0.00 | 0.10 | 0.10 | 84 | 1012.3 |
| 20260509185529 | 12 | 95 | 1.6 | 9.7 | 0.00 | 0.10 | 0.10 | 85 | 1012.2 |
| 20260509185048 | 12 | 88 | 1.6 | 4.8 | 0.00 | 0.10 | 0.10 | 84 | 1012.3 |
| 20260509184528 | 12 | 267 | 1.6 | 3.2 | 0.00 | 0.10 | 0.10 | 84 | 1012.4 |